Location: Arapaho Elementary School
(32.9607°N, 96.7625°W)
Time: 12:36:39
(UTC+00:00)

Cosmos 1500 Rocket - Pass Details

Date: 10 July 2022
Orbit: 602 x 631 km, 82.5° (Epoch: 07 August)

Event Time Altitude Azimuth Distance (km) Brightness Sun altitude
Exits shadow 09:51:33 12° 287° (WNW) 1,869 5.7 -17.2°
Drops below altitude 10° 09:53:17 10° 310° (NW) 2,013 6.1 -17.0°
Sets 09:56:56 0° 341° (NNW) 2,927 7.3 -16.4°
